Whiteman AFB, MO

1:13 PM CDT on March 24, 2017 (GMT -0500)
Whiteman Air Force Base

Weather History for KSZL - April, 2013

Change the Weather History Date:

Wednesday, April 24, 2013

  Actual Average Record
Temperature  
Mean Temperature 42 °F -  
Max Temperature 51 °F 66 °F 80 °F (2012)
Min Temperature 32 °F 47 °F 32 °F (2013)
Degree Days  
Heating Degree Days 24    
Moisture  
Dew Point 33 °F    
Average Humidity 85    
Maximum Humidity 100    
Minimum Humidity 42    
Precipitation  
Precipitation 0.06 in - - ()
Snow  
Snow 0.00 in - - ()
Snow Depth 0.00 in    
Sea Level Pressure  
Sea Level Pressure 30.22 in    
Wind  
Wind Speed 10 mph (WNW)    
Max Wind Speed 16 mph    
Max Gust Speed 23 mph    
Visibility 9 miles    
Events Snow    
Averages and records for this station are not official NWS values.
T = Trace of Precipitation, MM = Missing Value Source: NWS Daily Summary

Daily Weather History Graph

Daily Weather History Graph

Search for Another Location

Airport or City:

Trip Planner

Search our weather history database for the weather conditions in past years. The results will help you decide how hot, cold, wet, or windy it might be!

Date:

Astronomy

Apr. 24, 2013 Rise Set
Actual Time 6:25 AM CDT 8:00 PM CDT
Civil Twilight 5:57 AM CDT 8:28 PM CDT
Nautical Twilight 5:23 AM CDT 9:02 PM CDT
Astronomical Twilight 4:47 AM CDT 9:38 PM CDT
Moon 7:04 PM CDT 5:28 AM CDT
Length of Visible Light 14h 31m
Length of Day
13h 34m
Waxing Gibbous, 98% of the Moon is Illuminated
Apr 24
Waxing Gibbous
Apr 25
Full
May 2
Last Quarter
May 9
New
May 17
First Quarter

Hourly Weather History & Observations

Time (CDT) Temp. Windchill Dew Point Humidity Pressure Visibility Wind Dir Wind Speed Gust Speed Precip Events Conditions
12:55 AM 37.6 °F 28.4 °F 37.2 °F 99% 30.15 in 10.0 mi NNW 16.1 mph 23.0 mph N/A   Overcast
1:38 AM 33.8 °F 23.5 °F 33.8 °F 100% 30.14 in 6.0 mi NNW 16.1 mph - N/A Snow Light Snow
1:55 AM 34.5 °F 24.8 °F 34.5 °F 100% 30.17 in 6.0 mi NNW 15.0 mph - 0.01 in Snow Light Snow
2:58 AM 32.7 °F 27.3 °F 32.7 °F 100% 30.17 in 4.0 mi WNW 5.8 mph - 0.02 in Snow Light Snow
3:55 AM 32.7 °F 28.3 °F 32.7 °F 100% 30.17 in 6.0 mi WNW 4.6 mph - 0.03 in Snow Light Snow
4:56 AM 32.9 °F 27.5 °F 32.9 °F 100% 30.19 in 10.0 mi West 5.8 mph - 0.00 in   Overcast
5:21 AM 32.0 °F 25.6 °F 32.0 °F 100% 30.17 in 9.0 mi WSW 6.9 mph - N/A   Overcast
5:54 AM 33.3 °F 27.9 °F 33.3 °F 100% 30.22 in 10.0 mi West 5.8 mph - 0.00 in   Mostly Cloudy
5:55 AM 33.3 °F 27.9 °F 33.3 °F 100% 30.22 in 10.0 mi West 5.8 mph - 0.00 in   Mostly Cloudy
6:58 AM 32.7 °F 26.4 °F 32.7 °F 100% 30.24 in 10.0 mi NW 6.9 mph - N/A   Clear
7:58 AM 33.6 °F 26.8 °F 33.3 °F 99% 30.26 in 10.0 mi WNW 8.1 mph - N/A   Clear
8:58 AM 35.4 °F 28.4 °F 34.2 °F 95% 30.27 in 10.0 mi NW 9.2 mph - N/A   Clear
9:43 AM 37.4 °F 31.4 °F 32.0 °F 81% 30.23 in 10.0 mi NW 8.1 mph - N/A   Mostly Cloudy
9:58 AM 37.6 °F 30.0 °F 31.1 °F 77% 30.26 in 10.0 mi WNW 11.5 mph - N/A   Partly Cloudy
10:58 AM 39.9 °F 35.8 °F 30.0 °F 68% 30.26 in 10.0 mi Variable 5.8 mph - N/A   Partly Cloudy
11:58 AM 42.1 °F 38.4 °F 26.6 °F 54% 30.28 in 10.0 mi NNW 5.8 mph - N/A   Clear
12:58 PM 45.0 °F 40.6 °F 30.6 °F 57% 30.26 in 10.0 mi WNW 8.1 mph - N/A   Clear
1:58 PM 47.3 °F - 26.4 °F 44% 30.25 in 10.0 mi West 9.2 mph - N/A   Clear
2:58 PM 49.5 °F - 27.0 °F 42% 30.26 in 10.0 mi West 12.7 mph 17.3 mph N/A   Clear
5:55 PM 51.4 °F - 30.4 °F 44% 30.22 in 10.0 mi WSW 10.4 mph - N/A   Clear
9:58 PM 39.0 °F 32.8 °F 36.5 °F 91% 30.26 in 10.0 mi South 9.2 mph - N/A   Clear
10:55 PM 37.4 °F 30.8 °F 37.4 °F 100% 30.23 in 10.0 mi SSW 9.2 mph - N/A   Clear
11:55 PM 38.8 °F 32.6 °F 37.6 °F 95% 30.26 in 10.0 mi SSW 9.2 mph - N/A   Clear